GFSNIL_sfc_dewp_159.txt.gz
Dewpoint
68 69 67 68 69 68 68 69 68 69 71 70 69 69 70 70 70 70 70 69 70 70
68 69 68 68 68 68 68 67 69 72 71 70 69 70 70 69 68 69 69 69 69 69
68 69 69 69 69 67 67 67 69 69 68 67 69 71 71 69 69 67 65 67 68 68
68 68 69 68 68 68 69 68 68 69 68 69 70 71 70 69 70 68 66 66 67 68
69 69 69 69 68 68 67 69 69 70 69 70 70 70 69 69 70 69 68 68 68 68
68 68 69 69 69 69 68 69 69 69 70 69 70 70 69 69 69 69 69 70 69 68
68 68 69 69 69 69 69 69 69 70 70 69 70 70 69 69 69 70 70 70 69 69
66 65 66 67 69 69 70 69 69 69 69 69 67 67 66 67 68 69 70 70 70 69
67 66 65 67 67 68 69 69 68 68 66 64 64 62 63 65 67 69 70 69 70 70
67 66 65 67 67 67 67 68 66 65 64 62 62 61 61 64 67 69 67 67 69 70
66 65 65 67 67 66 67 67 65 64 63 61 60 58 59 61 68 63 61 63 64 66
66 65 65 66 67 67 65 65 64 64 62 60 59 57 58 61 66 61 59 59 59 61
67 67 67 67 66 65 63 61 60 59 59 57 58 56 56 59 65 60 58 58 57 57
65 65 65 64 64 62 61 59 58 56 56 56 54 55 54 56 64 60 58 56 56 55

GFSNIL_sfc_dewp_162.txt.gz
Dewpoint
68 69 69 68 70 70 70 70 71 70 72 72 72 71 72 72 72 72 73 71 72 72
69 69 69 69 70 71 70 70 70 71 72 71 72 72 72 71 71 72 72 71 71 72
69 69 70 70 70 69 69 69 70 70 71 70 70 71 73 72 71 70 69 69 71 71
69 69 70 70 70 70 69 69 69 70 70 70 71 72 72 72 71 71 70 69 69 70
69 69 69 70 70 69 70 71 70 70 71 70 71 71 71 71 71 71 71 70 70 71
70 70 69 69 70 70 70 70 71 71 71 71 71 71 71 71 70 71 71 71 71 71
68 69 70 70 70 70 71 70 71 71 71 70 71 71 71 71 71 71 71 71 71 71
67 67 68 69 70 70 71 71 71 71 70 70 70 67 67 68 69 70 70 71 71 71
67 66 66 68 68 69 70 70 70 70 69 66 64 61 62 64 67 70 71 70 71 71
66 66 66 68 69 68 68 68 67 66 65 63 62 60 61 64 69 69 68 69 70 71
67 66 65 68 67 68 68 67 65 64 64 63 60 58 59 63 65 64 63 63 65 68
66 66 66 66 67 66 66 65 64 63 61 61 59 57 58 63 63 61 60 60 59 61
66 66 65 66 67 65 63 61 60 59 59 58 59 56 57 61 64 61 61 60 59 57
66 66 66 65 64 62 60 59 58 57 56 56 55 56 54 57 64 61 59 57 56 55

GFSNIL_sfc_dewp_165.txt.gz
Dewpoint
73 69 69 71 69 69 69 70 73 73 73 74 74 74 74 77 73 74 75 72 76 73
72 72 70 72 72 71 73 71 73 73 73 74 74 74 75 76 74 75 74 74 75 72
71 72 72 72 72 72 73 73 73 72 73 73 74 74 75 74 73 74 71 69 72 73
71 71 72 71 72 73 73 72 72 72 72 73 72 73 75 73 74 73 74 72 72 72
71 71 71 71 72 72 73 73 73 73 72 72 72 73 73 71 71 72 70 70 73 72
71 71 71 71 72 72 72 72 72 73 73 73 72 73 72 72 71 71 72 72 72 71
71 71 71 72 73 73 73 73 72 73 73 73 73 72 72 72 73 73 72 73 72 72
72 73 73 73 73 73 73 73 74 74 73 73 73 70 72 72 71 72 72 72 72 73
71 71 71 72 73 73 73 73 74 73 73 72 68 61 62 67 71 71 72 72 73 73
69 69 70 71 71 71 72 72 71 71 71 69 68 60 62 66 71 71 71 70 72 72
68 68 71 70 69 70 70 69 69 69 69 68 64 59 61 67 69 68 68 67 68 69
68 67 68 68 68 69 68 67 67 67 67 66 64 57 59 65 66 65 65 64 62 64
67 67 67 67 66 66 64 62 62 61 60 58 61 56 56 63 66 64 62 60 60 57
68 67 66 66 64 62 60 59 58 58 58 58 57 58 55 57 66 62 60 58 58 56

GFSNIL_sfc_dewp_168.txt.gz
Dewpoint
73 71 67 69 67 65 65 67 71 72 72 73 73 73 72 69 68 72 72 71 72 68
73 73 69 71 71 67 70 68 71 73 73 73 72 73 72 68 70 71 71 71 72 69
71 73 72 72 73 71 72 71 72 73 72 71 71 73 73 70 70 71 69 67 72 72
70 71 72 70 72 71 70 71 71 74 72 73 70 71 72 72 70 70 70 70 71 71
71 71 70 71 70 72 71 71 74 73 73 73 72 73 71 70 68 69 69 70 70 70
70 71 71 71 72 71 73 73 72 73 73 70 70 72 71 71 70 70 69 69 70 70
71 71 70 71 73 72 73 73 72 74 71 70 70 71 70 71 71 70 69 70 71 71
72 73 73 72 73 72 73 73 73 73 72 71 71 69 72 72 71 73 72 71 72 72
73 73 74 74 75 74 74 73 73 73 72 71 68 63 64 69 71 72 72 72 72 73
73 72 73 73 73 73 73 71 72 73 73 72 72 61 63 66 71 72 72 72 73 72
70 70 71 71 72 71 72 73 73 72 72 71 67 60 62 67 71 71 70 70 70 71
70 70 70 70 70 70 70 70 70 71 70 69 66 58 60 65 69 69 69 67 66 69
69 68 68 69 69 68 68 66 65 64 64 61 65 57 57 64 68 68 65 65 63 57
69 69 68 68 66 64 63 61 60 59 60 59 57 61 56 58 67 65 64 62 60 59

GFSNIL_sfc_dewp_171.txt.gz
Dewpoint
73 68 68 71 72 70 70 64 75 72 72 72 72 72 73 70 69 74 70 71 72 66
73 73 70 75 72 70 72 72 72 70 71 71 72 73 73 69 71 71 71 71 71 70
75 72 72 70 72 73 73 71 73 71 71 71 71 72 74 73 73 72 70 71 73 71
71 70 71 69 70 71 72 72 71 72 71 71 71 71 73 75 72 71 72 71 70 71
71 71 69 70 69 71 72 72 72 72 72 73 70 72 72 71 72 71 69 71 72 73
70 70 70 70 71 71 73 72 71 73 73 72 71 71 71 71 70 73 68 69 70 70
72 73 70 72 73 71 74 74 73 74 73 72 71 71 70 71 71 71 69 69 70 72
74 76 76 75 75 75 74 74 73 73 72 72 71 68 73 71 72 72 71 70 71 72
74 75 76 76 75 75 76 75 76 73 73 73 67 66 67 70 70 71 72 73 73 73
75 74 75 75 75 75 74 74 73 75 73 73 73 64 65 65 70 71 73 73 73 73
72 71 73 74 74 75 75 75 76 74 73 74 66 62 62 65 72 73 71 70 71 73
73 70 71 72 72 73 72 72 73 72 73 72 68 59 60 66 72 72 70 69 66 66
71 70 71 71 71 71 68 67 66 64 65 63 66 58 59 64 74 72 67 67 67 58
69 70 70 70 68 65 63 63 61 60 60 61 59 61 57 59 68 68 67 64 64 61